• In Germany
  • List of Countries
  • For 7 days
  • Water Temperature
  • Satellite Maps
  • Weather Map
  • Weather Widgets
  • user-avatar
    Login

    Hourly Weather Varvarinskiy

    Today, 26 September, Wednesday

    Time Temperature Precipitation Wind Pressure Humidity
    00:00 +5°C° 0 mm 1 mps 658 mmHg 75%
    01:00 +4°C° 0 mm 1 mps 658 mmHg 76%
    02:00 +4°C° 0 mm 1 mps 658 mmHg 78%
    03:00 +4°C° 0 mm 1 mps 658 mmHg 79%
    04:00 +4°C° 0 mm 1 mps 658 mmHg 81%
    05:00 +4°C° 0 mm 1 mps 658 mmHg 78%
    06:00 +5°C° 0 mm 1 mps 658 mmHg 74%
    07:00 +6°C° 0 mm 1 mps 658 mmHg 71%
    08:00 +7°C° 0 mm 2 mps 658 mmHg 65%
    09:00 +9°C° 0 mm 2 mps 658 mmHg 59%
    10:00 +11°C° 0 mm 3 mps 658 mmHg 54%
    11:00 +12°C° 0 mm 3 mps 658 mmHg 52%
    12:00 +13°C° 0 mm 4 mps 657 mmHg 49%
    13:00 +14°C° 0 mm 5 mps 657 mmHg 47%
    14:00 +13°C° 0 mm 4 mps 657 mmHg 52%
    15:00 +13°C° 0 mm 3 mps 656 mmHg 57%
    16:00 +13°C° 0 mm 2 mps 656 mmHg 61%
    17:00 +12°C° 0 mm 2 mps 655 mmHg 69%
    18:00 +9°C° 0 mm 2 mps 655 mmHg 76%
    19:00 +8°C° 0 mm 1 mps 654 mmHg 83%
    20:00 +8°C° 0 mm 1 mps 654 mmHg 85%
    21:00 +8°C° 0 mm 1 mps 654 mmHg 87%
    22:00 +7°C° 0 mm 1 mps 654 mmHg 89%
    23:00 +7°C° 0.2 mm 1 mps 654 mmHg 90%

    Tomorrow, 27 September, Thursday

    Time Temperature Precipitation Wind Pressure Humidity
    00:00 +6°C° 0.2 mm 1 mps 654 mmHg 91%
    01:00 +6°C° 0.2 mm 1 mps 653 mmHg 92%
    02:00 +6°C° 0.9 mm 1 mps 653 mmHg 93%
    03:00 +5°C° 0.9 mm 2 mps 653 mmHg 93%
    04:00 +5°C° 0.9 mm 2 mps 653 mmHg 94%
    05:00 +4°C° 2.1 mm 3 mps 653 mmHg 93%
    06:00 +3°C° 2.1 mm 3 mps 653 mmHg 91%
    07:00 +3°C° 2.1 mm 4 mps 653 mmHg 90%
    08:00 +4°C° 0.1 mm 4 mps 653 mmHg 86%
    09:00 +3°C° 0.1 mm 5 mps 653 mmHg 83%
    10:00 +5°C° 0.1 mm 5 mps 653 mmHg 79%
    11:00 +5°C° 0 mm 5 mps 653 mmHg 76%
    12:00 +5°C° 0 mm 5 mps 653 mmHg 74%
    13:00 +5°C° 0 mm 5 mps 653 mmHg 72%
    14:00 +5°C° 0.1 mm 5 mps 653 mmHg 74%
    15:00 +4°C° 0.1 mm 4 mps 654 mmHg 75%
    16:00 +4°C° 0.1 mm 4 mps 654 mmHg 77%
    17:00 +3°C° 0.1 mm 4 mps 654 mmHg 79%
    18:00 +1°C° 0.1 mm 4 mps 654 mmHg 81%
    19:00 +1°C° 0.1 mm 4 mps 654 mmHg 83%
    20:00 0°C° 0.2 mm 4 mps 654 mmHg 83%
    21:00 0°C° 0.2 mm 4 mps 653 mmHg 83%
    22:00 0°C° 0.2 mm 5 mps 653 mmHg 84%
    23:00 0°C° 1.2 mm 5 mps 653 mmHg 86%

    Day after tomorrow, 28 September, Friday

    Time Temperature Precipitation Wind Pressure Humidity
    00:00 -2°C° 1.2 mm 6 mps 652 mmHg 88%
    01:00 -2°C° 1.2 mm 6 mps 651 mmHg 90%
    02:00 -2°C° 3.6 mm 6 mps 651 mmHg 92%
    03:00 -2°C° 3.6 mm 6 mps 650 mmHg 94%
    04:00 -2°C° 3.6 mm 6 mps 650 mmHg 96%
    05:00 -1°C° 2.7 mm 5 mps 650 mmHg 96%
    06:00 -1°C° 2.7 mm 5 mps 651 mmHg 96%
    07:00 0°C° 2.7 mm 4 mps 651 mmHg 96%
    08:00 +1°C° 1 mm 5 mps 652 mmHg 97%
    09:00 +1°C° 1 mm 5 mps 653 mmHg 98%
    10:00 +2°C° 1 mm 5 mps 654 mmHg 98%
    11:00 +2°C° 0.2 mm 5 mps 654 mmHg 98%
    12:00 +3°C° 0.2 mm 4 mps 655 mmHg 98%
    13:00 +4°C° 0.2 mm 4 mps 656 mmHg 98%
    14:00 +4°C° 0.3 mm 4 mps 656 mmHg 99%
    15:00 +4°C° 0.3 mm 3 mps 657 mmHg 99%
    16:00 +4°C° 0.3 mm 2 mps 658 mmHg 99%
    17:00 +3°C° 0.5 mm 3 mps 658 mmHg 99%
    18:00 +3°C° 0.5 mm 3 mps 659 mmHg 99%
    19:00 +3°C° 0.5 mm 3 mps 660 mmHg 99%
    20:00 +4°C° 0.3 mm 3 mps 660 mmHg 99%
    21:00 +4°C° 0.3 mm 3 mps 660 mmHg 99%
    22:00 +4°C° 0.3 mm 3 mps 661 mmHg 99%
    23:00 +3°C° 0.1 mm 3 mps 661 mmHg 99%

    29 September, Saturday

    Time Temperature Precipitation Wind Pressure Humidity
    00:00 +3°C° 0.1 mm 3 mps 661 mmHg 99%
    01:00 +3°C° 0.1 mm 3 mps 661 mmHg 99%
    02:00 +3°C° 0 mm 3 mps 661 mmHg 99%
    03:00 +4°C° 0 mm 2 mps 662 mmHg 99%
    04:00 +3°C° 0 mm 2 mps 662 mmHg 99%
    05:00 +4°C° 0 mm 2 mps 662 mmHg 99%
    06:00 +4°C° 0 mm 2 mps 663 mmHg 98%
    07:00 +4°C° 0 mm 2 mps 663 mmHg 98%
    08:00 +6°C° 0 mm 1 mps 663 mmHg 97%
    09:00 +6°C° 0 mm 1 mps 663 mmHg 97%
    10:00 +7°C° 0 mm 1 mps 663 mmHg 96%
    11:00 +8°C° 0 mm 1 mps 663 mmHg 95%
    12:00 +8°C° 0 mm 1 mps 663 mmHg 93%
    13:00 +9°C° 0 mm 1 mps 663 mmHg 92%
    14:00 +8°C° 0 mm 1 mps 663 mmHg 93%
    15:00 +8°C° 0 mm 1 mps 663 mmHg 94%
    16:00 +7°C° 0 mm 2 mps 662 mmHg 95%
    17:00 +6°C° 0 mm 2 mps 662 mmHg 95%
    18:00 +5°C° 0 mm 2 mps 663 mmHg 96%
    19:00 +4°C° 0 mm 2 mps 663 mmHg 96%
    20:00 +4°C° 0 mm 2 mps 663 mmHg 96%
    21:00 +3°C° 0 mm 2 mps 663 mmHg 95%
    22:00 +4°C° 0 mm 1 mps 663 mmHg 94%
    23:00 +3°C° 0 mm 2 mps 663 mmHg 94%

    30 September, Sunday

    Time Temperature Precipitation Wind Pressure Humidity
    00:00 +2°C° 0 mm 2 mps 663 mmHg 94%
    01:00 +2°C° 0 mm 2 mps 662 mmHg 93%
    02:00 +2°C° 0 mm 2 mps 662 mmHg 93%
    03:00 +2°C° 0 mm 2 mps 662 mmHg 93%
    04:00 +2°C° 0 mm 2 mps 662 mmHg 92%
    05:00 +2°C° 0 mm 2 mps 662 mmHg 92%
    06:00 +3°C° 0 mm 2 mps 662 mmHg 91%
    07:00 +3°C° 0 mm 2 mps 663 mmHg 91%
    08:00 +5°C° 0 mm 2 mps 662 mmHg 88%
    09:00 +6°C° 0 mm 2 mps 662 mmHg 85%
    10:00 +8°C° 0 mm 2 mps 662 mmHg 83%
    11:00 +8°C° 0 mm 2 mps 662 mmHg 81%
    12:00 +9°C° 0 mm 3 mps 662 mmHg 78%
    13:00 +10°C° 0 mm 3 mps 661 mmHg 76%
    14:00 +9°C° 0 mm 3 mps 661 mmHg 78%
    15:00 +9°C° 0 mm 2 mps 661 mmHg 80%
    16:00 +8°C° 0 mm 2 mps 661 mmHg 83%
    17:00 +7°C° 0 mm 2 mps 660 mmHg 85%
    18:00 +5°C° 0 mm 2 mps 660 mmHg 88%
    19:00 +4°C° 0 mm 2 mps 660 mmHg 90%
    20:00 +3°C° 0 mm 2 mps 660 mmHg 91%
    21:00 +3°C° 0 mm 2 mps 660 mmHg 91%
    22:00 +2°C° 0 mm 2 mps 660 mmHg 92%
    23:00 +2°C° 0 mm 2 mps 659 mmHg 92%

    1 October, Monday

    Time Temperature Precipitation Wind Pressure Humidity
    00:00 +2°C° 0 mm 2 mps 659 mmHg 92%
    01:00 +2°C° 0 mm 2 mps 659 mmHg 93%
    02:00 +1°C° 0 mm 3 mps 659 mmHg 93%
    03:00 +1°C° 0 mm 3 mps 659 mmHg 93%
    04:00 +1°C° 0 mm 3 mps 659 mmHg 92%
    05:00 0°C° 0.1 mm 4 mps 659 mmHg 90%
    06:00 0°C° 0.1 mm 4 mps 659 mmHg 87%
    07:00 +1°C° 0.1 mm 4 mps 659 mmHg 84%
    08:00 +2°C° 0 mm 5 mps 660 mmHg 77%
    09:00 +3°C° 0 mm 5 mps 660 mmHg 70%
    10:00 +4°C° 0 mm 6 mps 660 mmHg 62%
    11:00 +4°C° 0 mm 6 mps 659 mmHg 61%
    12:00 +5°C° 0 mm 6 mps 659 mmHg 60%
    13:00 +5°C° 0 mm 6 mps 659 mmHg 58%
    14:00 +6°C° 0 mm 5 mps 659 mmHg 61%
    15:00 +5°C° 0 mm 4 mps 659 mmHg 65%
    16:00 +5°C° 0 mm 3 mps 659 mmHg 68%
    17:00 +3°C° 0 mm 3 mps 659 mmHg 72%
    18:00 +2°C° 0 mm 3 mps 658 mmHg 77%
    19:00 +1°C° 0 mm 2 mps 658 mmHg 82%
    20:00 +1°C° 0 mm 2 mps 658 mmHg 82%
    21:00 +1°C° 0 mm 2 mps 658 mmHg 82%
    22:00 +1°C° 0 mm 2 mps 657 mmHg 82%
    23:00 +1°C° 0 mm 2 mps 657 mmHg 82%
    Show more